The Dalles, WA

4:30 PM PST on November 11, 2019 (GMT -0800)
Columbia Gorge Regional-The Dalles

Weather History for KDLS - September, 2019

Change the Weather History Date:

Friday, September 13, 2019

  Actual Average Record
Temperature  
Mean Temperature 70 °F -  
Max Temperature 79 °F 79 °F 98 °F (1999)
Min Temperature 64 °F 49 °F 34 °F (1970)
Cooling Degree Days 6    
Growing Degree Days 20 (Base 50)    
Moisture  
Dew Point 52 °F    
Average Humidity 53    
Maximum Humidity 73    
Minimum Humidity 37    
Precipitation  
Precipitation 0.00 in - - ()
Sea Level Pressure  
Sea Level Pressure 30.07 in    
Wind  
Wind Speed 14 mph (WNW)    
Max Wind Speed 23 mph    
Max Gust Speed 31 mph    
Visibility 10 miles    
Events      
Averages and records for this station are not official NWS values.
T = Trace of Precipitation, MM = Missing Value Source: NWS Daily Summary

Daily Weather History Graph

Daily Weather History Graph

Search for Another Location

Airport or City:

Astronomy

Sep. 13, 2019 Rise Set
Actual Time 6:40 AM PDT 7:19 PM PDT
Civil Twilight 6:10 AM PDT 7:49 PM PDT
Nautical Twilight 5:34 AM PDT 8:25 PM PDT
Astronomical Twilight 4:57 AM PDT 9:02 PM PDT
Moon 7:39 PM PDT (9/13) 5:57 AM PDT (9/13)
Length of Visible Light 13h 39m
Length of Day
12h 39m
Full, 100% of the Moon is Illuminated
Sep 13
Full
Sep 13
Full
Sep 21
Last Quarter
Sep 28
New
Oct 5
First Quarter

Hourly Weather History & Observations

Time (PDT) Temp. Dew Point Humidity Pressure Visibility Wind Dir Wind Speed Gust Speed Precip Events Conditions
12:53 AM 69.1 °F 50.0 °F 51% 30.04 in 10.0 mi WNW 12.7 mph 19.6 mph N/A   Clear
1:53 AM 69.1 °F 48.9 °F 49% 30.04 in 10.0 mi WNW 18.4 mph - N/A   Clear
2:53 AM 68.0 °F 51.1 °F 55% 30.04 in 10.0 mi WNW 16.1 mph - N/A   Clear
3:53 AM 66.0 °F 54.0 °F 65% 30.04 in 10.0 mi West 11.5 mph - N/A   Clear
4:53 AM 66.0 °F 54.0 °F 65% 30.06 in 10.0 mi WNW 15.0 mph - N/A   Clear
5:53 AM 64.0 °F 55.0 °F 73% 30.07 in 10.0 mi West 6.9 mph - N/A   Mostly Cloudy
6:53 AM 64.0 °F 55.0 °F 73% 30.09 in 10.0 mi WNW 6.9 mph - N/A   Overcast
7:53 AM 64.9 °F 55.9 °F 73% 30.11 in 10.0 mi Calm Calm - N/A   Overcast
8:53 AM 66.0 °F 55.0 °F 68% 30.12 in 10.0 mi West 10.4 mph - N/A   Mostly Cloudy
9:53 AM 71.1 °F 55.0 °F 57% 30.12 in 10.0 mi WNW 15.0 mph - N/A   Scattered Clouds
10:53 AM 73.0 °F 52.0 °F 48% 30.11 in 10.0 mi West 18.4 mph - N/A   Clear
11:53 AM 75.0 °F 51.1 °F 43% 30.10 in 10.0 mi WNW 20.7 mph 26.5 mph N/A   Clear
12:53 PM 73.0 °F 51.1 °F 46% 30.10 in 10.0 mi WNW 20.7 mph 28.8 mph N/A   Clear
1:53 PM 77.0 °F 51.1 °F 40% 30.08 in 10.0 mi WNW 17.3 mph - N/A   Clear
2:53 PM 75.9 °F 50.0 °F 40% 30.06 in 10.0 mi NW 17.3 mph 27.6 mph N/A   Clear
3:53 PM 77.0 °F 48.9 °F 37% 30.06 in 10.0 mi NW 23.0 mph 28.8 mph N/A   Clear
4:53 PM 73.9 °F 48.9 °F 41% 30.06 in 10.0 mi WNW 19.6 mph 25.3 mph N/A   Clear
5:53 PM 73.0 °F 48.9 °F 42% 30.06 in 10.0 mi WNW 20.7 mph 29.9 mph N/A   Clear
6:53 PM 71.1 °F 50.0 °F 47% 30.05 in 10.0 mi NW 16.1 mph - N/A   Clear
7:53 PM 71.1 °F 50.0 °F 47% 30.04 in 10.0 mi West 18.4 mph 31.1 mph N/A   Clear
8:53 PM 70.0 °F 51.1 °F 51% 30.05 in 10.0 mi WNW 15.0 mph - N/A   Clear
9:53 PM 69.1 °F 52.0 °F 54% 30.05 in 10.0 mi West 11.5 mph - N/A   Clear
10:53 PM 68.0 °F 52.0 °F 56% 30.04 in 10.0 mi WNW 10.4 mph - N/A   Clear
11:53 PM 66.9 °F 53.1 °F 61% 30.04 in 10.0 mi WNW 12.7 mph 18.4 mph N/A   Clear